Preview of NWS' New Version of Forecast
This preview is not operational and should not be used for support decisions.

Regional Weather Roundup (RWR)

Issued by National Weather Service (NWS)

                            
000
ASUS45 KABQ 201810
RWRNM 
NEW MEXICO REGIONAL WEATHER ROUNDUP
NATIONAL WEATHER SERVICE ALBUQUERQUE NM
1200 PM MDT THU JUN 20 2019

NOTE: "FAIR" MEANS FEW OR NO CLOUDS BELOW 12,000 FEET AGL WITH NO
       SIGNIFICANT WEATHER OR OBSTRUCTIONS TO VISION.

      THIS PRODUCT IS RELEASED AS TWO VERSIONS.  ONE VERSION NEAR
      THE TOP OF THE HOUR CONTAINING PRELIMINARY DATA FROM ALBUQUERQUE
      AND OTHER STATIONS.  A FINAL VERSION WITH ADDITIONAL DATA IS 
      ISSUED ABOUT 10 MINUTES AFTER THE HOUR.
 
NMZ501-503-504-510>518-201900-
NORTHWEST PLATEAU/NORTHCENTRAL MOUNTAINS
  
CITY           SKY/WX    TMP DP  RH WIND       PRES   REMARKS
FARMINGTON     FAIR      83  30  14 SW6       29.98F                  
6HR MIN TEMP:  49; 6HR MAX TEMP:  84;                                

LOS ALAMOS       N/A     78  25  14 SW15G24   30.14S                  
SANTA FE       FAIR      84  29  13 SW9G21    30.07F                  
6HR MIN TEMP:  53; 6HR MAX TEMP:  84;                                

TAOS           FAIR      81  34  18 W16G32    30.11F                  
ANGEL FIRE       N/A     67  33  28 SW15G21   30.21F                  

$$
NMZ402-403-502-505>509-201900-
WESTCENTRAL MOUNTAINS/SOUTHWEST MOUNTAINS
  
CITY           SKY/WX    TMP DP  RH WIND       PRES   REMARKS
GALLUP         FAIR      80  24  12 SW13      30.12F                  
6HR MIN TEMP:  52; 6HR MAX TEMP:  80;                                

GRANTS         FAIR      80  26  13 W10G17    30.13F                  
SILVER CITY    FAIR      85  17   8 W16G25    30.11F                  

$$
NMZ407-409-411-412-201900-
SOUTHERN DESERTS
  
CITY           SKY/WX    TMP DP  RH WIND       PRES   REMARKS
DEMING         FAIR      90  19   7 W15G24    30.03F                  
6HR MIN TEMP:  59; 6HR MAX TEMP:  91;                                

LAS CRUCES     FAIR      91  22   8 W21G28    30.03S                  
HOLLOMAN AFB   FAIR      91  27  10 SW10      29.99F                  
ALAMOGORDO     FAIR      90  25   9 W6        29.99F                  
T OR C         FAIR      90  18   7 VRB3      30.01F                  
6HR MIN TEMP:  74; 6HR MAX TEMP:  90;                                


$$
NMZ519>523-201900-
CENTRAL VALLEYS/CENTRAL HIGHLANDS
  
CITY           SKY/WX    TMP DP  RH WIND       PRES   REMARKS
ALBUQUERQUE    FAIR      84  32  15 SW7       30.03F                  
6HR MIN TEMP:  60; 6HR MAX TEMP:  85;                                

DOUBLE EAGLE   MOSUNNY   82  30  15 SW8       30.06F                  
MORIARTY ARPT  FAIR      89  26  10 W16G29    30.08S                  
6HR MIN TEMP:  49; 6HR MAX TEMP:  89;                                

CLINES CORNERS FAIR      82  29  14 W21G40    30.13F                  
6HR MIN TEMP:  50; 6HR MAX TEMP:  82;                                

BELEN          FAIR      88  24  10 SE9G16    30.02F                  
6HR MIN TEMP:  67; 6HR MAX TEMP:  88;                                

SOCORRO        FAIR      89  26  10 SE13G20   30.01F                  
6HR MIN TEMP:  69; 6HR MAX TEMP:  89;                                


$$
NMZ524>526-539-540-201900-
SOUTHCENTRAL MOUNTAINS
  
CITY           SKY/WX    TMP DP  RH WIND       PRES   REMARKS
RUIDOSO        FAIR      79  23  12 W5        30.16S                  

$$
NMZ527>531-201900-
NORTHEAST HIGHLANDS/NORTHEAST PLAINS
  
CITY           SKY/WX    TMP DP  RH WIND       PRES   REMARKS
LAS VEGAS      FAIR      84  30  14 W20G29    30.08F                  
6HR MIN TEMP:  53; 6HR MAX TEMP:  84;                                

RATON          FAIR      86  38  18 S12G21    29.98F                  
6HR MIN TEMP:  48; 6HR MAX TEMP:  86;                                

CLAYTON        FAIR      90  35  14 W7G17     29.89F                  

$$
NMZ532>537-201900-
EASTCENTRAL PLAINS
  
CITY           SKY/WX    TMP DP  RH WIND       PRES   REMARKS
SANTA ROSA     FAIR      93  32  11 W23       29.93F                  
TUCUMCARI      LGT RAIN  99  33  10 W13G26    29.83F                  
6HR MIN TEMP:  58; 6HR MAX TEMP:  99; 6HR PCP: TRACE;                

CANNON AFB     FAIR      93  35  13 W8G18     29.91S                  
6HR MIN TEMP:  61; 6HR MAX TEMP:  93;                                

CLOVIS AIRPORT FAIR      94  44  17 SW12G17   29.90F                  

$$
NMZ028-029-538-201900-
SOUTHEAST PLAINS
  
CITY           SKY/WX    TMP DP  RH WIND       PRES   REMARKS
ROSWELL        FAIR      97  32  10 VRB5      29.88F                  
6HR MIN TEMP:  69; 6HR MAX TEMP:  97;                                

ARTESIA        FAIR      95  37  13 SE7       29.90F                  
CARLSBAD       FAIR      97  33  10 SE9       29.87F                  
6HR MIN TEMP:  76; 6HR MAX TEMP:  97;                                

HOBBS          SUNNY     97  27   8 W6        29.90F                  


$$